• In Deutschland
  • Länderverzeichnis
  • Für 7 Tage
  • Wassertemperatur
  • Satellitenkarten
  • Wetterkarte
  • Widgets
  • user-avatar
    Anmelden

    Stündliche Wetter Brisbane

    Heute, 21 Februar, Mittwoch

    Zeit Temperatur Niederschläge Wind Luftdruck Luftfeuchtigkeit
    00:00 +23°C° 0,1 mm 5 m/S 756 mmHg 82%
    01:00 +23°C° 0,1 mm 5 m/S 756 mmHg 83%
    02:00 +23°C° 0,1 mm 5 m/S 756 mmHg 84%
    03:00 +23°C° 0,1 mm 5 m/S 756 mmHg 85%
    04:00 +23°C° 0 mm 6 m/S 756 mmHg 85%
    05:00 +23°C° 0,3 mm 6 m/S 757 mmHg 84%
    06:00 +23°C° 0,3 mm 7 m/S 757 mmHg 84%
    07:00 +24°C° 0,3 mm 7 m/S 757 mmHg 83%
    08:00 +24°C° 0,7 mm 7 m/S 757 mmHg 80%
    09:00 +26°C° 0,7 mm 7 m/S 758 mmHg 77%
    10:00 +26°C° 0,7 mm 8 m/S 758 mmHg 75%
    11:00 +26°C° 0,8 mm 8 m/S 758 mmHg 74%
    12:00 +26°C° 0,8 mm 7 m/S 758 mmHg 73%
    13:00 +26°C° 0,8 mm 7 m/S 757 mmHg 72%
    14:00 +26°C° 0,4 mm 7 m/S 757 mmHg 70%
    15:00 +26°C° 0,4 mm 7 m/S 757 mmHg 68%
    16:00 +27°C° 0 mm 7 m/S 757 mmHg 60%
    17:00 +27°C° 0 mm 7 m/S 758 mmHg 63%
    18:00 +26°C° 0 mm 7 m/S 758 mmHg 66%
    19:00 +24°C° 0 mm 6 m/S 758 mmHg 69%
    20:00 +23°C° 0,1 mm 6 m/S 758 mmHg 71%
    21:00 +23°C° 0,1 mm 6 m/S 759 mmHg 73%
    22:00 +23°C° 0,1 mm 6 m/S 759 mmHg 75%
    23:00 +23°C° 0,2 mm 6 m/S 759 mmHg 77%

    Morgen, 22 Februar, Donnerstag

    Zeit Temperatur Niederschläge Wind Luftdruck Luftfeuchtigkeit
    00:00 +22°C° 0,2 mm 6 m/S 758 mmHg 78%
    01:00 +22°C° 0,2 mm 6 m/S 758 mmHg 80%
    02:00 +22°C° 0,2 mm 6 m/S 758 mmHg 80%
    03:00 +22°C° 0,2 mm 6 m/S 758 mmHg 81%
    04:00 +22°C° 0,2 mm 6 m/S 758 mmHg 82%
    05:00 +22°C° 0,4 mm 6 m/S 758 mmHg 82%
    06:00 +23°C° 0,4 mm 6 m/S 759 mmHg 82%
    07:00 +23°C° 0,4 mm 6 m/S 759 mmHg 82%
    08:00 +23°C° 0,4 mm 6 m/S 759 mmHg 80%
    09:00 +24°C° 0,4 mm 6 m/S 759 mmHg 79%
    10:00 +24°C° 0,4 mm 6 m/S 759 mmHg 77%
    11:00 +24°C° 0,5 mm 6 m/S 759 mmHg 77%
    12:00 +24°C° 0,5 mm 6 m/S 759 mmHg 77%
    13:00 +26°C° 0,5 mm 6 m/S 758 mmHg 77%
    14:00 +24°C° 0,5 mm 6 m/S 758 mmHg 79%
    15:00 +24°C° 0,5 mm 6 m/S 758 mmHg 81%
    16:00 +24°C° 0,5 mm 6 m/S 758 mmHg 83%
    17:00 +24°C° 0,6 mm 6 m/S 758 mmHg 85%
    18:00 +23°C° 0,6 mm 5 m/S 758 mmHg 87%
    19:00 +23°C° 0,6 mm 5 m/S 758 mmHg 89%
    20:00 +23°C° 0,7 mm 5 m/S 759 mmHg 90%
    21:00 +23°C° 0,7 mm 5 m/S 759 mmHg 90%
    22:00 +23°C° 0,7 mm 5 m/S 759 mmHg 91%
    23:00 +23°C° 1,2 mm 5 m/S 759 mmHg 91%

    übermorgen, 23 Februar, Freitag

    Zeit Temperatur Niederschläge Wind Luftdruck Luftfeuchtigkeit
    00:00 +23°C° 1,2 mm 4 m/S 759 mmHg 92%
    01:00 +23°C° 1,2 mm 4 m/S 758 mmHg 92%
    02:00 +23°C° 2 mm 4 m/S 758 mmHg 93%
    03:00 +23°C° 2 mm 4 m/S 758 mmHg 93%
    04:00 +23°C° 2 mm 4 m/S 758 mmHg 93%
    05:00 +23°C° 2,4 mm 4 m/S 758 mmHg 93%
    06:00 +23°C° 2,4 mm 4 m/S 758 mmHg 93%
    07:00 +25°C° 2,4 mm 4 m/S 759 mmHg 93%
    08:00 +25°C° 2,6 mm 4 m/S 759 mmHg 92%
    09:00 +25°C° 2,6 mm 3 m/S 759 mmHg 92%
    10:00 +25°C° 2,6 mm 3 m/S 759 mmHg 91%
    11:00 +26°C° 2,9 mm 3 m/S 759 mmHg 89%
    12:00 +26°C° 2,9 mm 3 m/S 759 mmHg 87%
    13:00 +27°C° 2,9 mm 3 m/S 758 mmHg 85%
    14:00 +27°C° 2,9 mm 3 m/S 758 mmHg 86%
    15:00 +26°C° 2,9 mm 3 m/S 758 mmHg 86%
    16:00 +26°C° 2,9 mm 3 m/S 757 mmHg 87%
    17:00 +26°C° 2,1 mm 3 m/S 758 mmHg 89%
    18:00 +25°C° 2,1 mm 3 m/S 758 mmHg 91%
    19:00 +25°C° 2,1 mm 3 m/S 758 mmHg 92%
    20:00 +25°C° 1,5 mm 3 m/S 759 mmHg 93%
    21:00 +25°C° 1,5 mm 3 m/S 759 mmHg 93%
    22:00 +25°C° 1,5 mm 3 m/S 760 mmHg 94%
    23:00 +25°C° 1,3 mm 3 m/S 759 mmHg 94%

    24 Februar, Samstag

    Zeit Temperatur Niederschläge Wind Luftdruck Luftfeuchtigkeit
    00:00 +25°C° 1,3 mm 3 m/S 759 mmHg 95%
    01:00 +25°C° 1,3 mm 3 m/S 758 mmHg 95%
    02:00 +25°C° 1,1 mm 2 m/S 758 mmHg 95%
    03:00 +25°C° 1,1 mm 2 m/S 758 mmHg 95%
    04:00 +24°C° 1,1 mm 2 m/S 758 mmHg 95%
    05:00 +25°C° 0,9 mm 2 m/S 758 mmHg 94%
    06:00 +25°C° 0,9 mm 2 m/S 758 mmHg 92%
    07:00 +26°C° 0,9 mm 2 m/S 759 mmHg 91%
    08:00 +27°C° 0,8 mm 2 m/S 759 mmHg 84%
    09:00 +29°C° 0,8 mm 2 m/S 759 mmHg 77%
    10:00 +30°C° 0,8 mm 3 m/S 758 mmHg 71%
    11:00 +31°C° 0,7 mm 3 m/S 758 mmHg 69%
    12:00 +33°C° 0,7 mm 3 m/S 757 mmHg 66%
    13:00 +33°C° 0,7 mm 4 m/S 756 mmHg 64%
    14:00 +33°C° 0,5 mm 4 m/S 756 mmHg 67%
    15:00 +32°C° 0,5 mm 4 m/S 756 mmHg 70%
    16:00 +32°C° 0,5 mm 5 m/S 755 mmHg 73%
    17:00 +29°C° 0,8 mm 4 m/S 756 mmHg 78%
    18:00 +28°C° 0,8 mm 4 m/S 756 mmHg 84%
    19:00 +27°C° 0,8 mm 4 m/S 756 mmHg 89%
    20:00 +27°C° 0,8 mm 4 m/S 757 mmHg 90%
    21:00 +26°C° 0,8 mm 4 m/S 757 mmHg 91%
    22:00 +26°C° 0,8 mm 3 m/S 757 mmHg 91%
    23:00 +26°C° 0,9 mm 3 m/S 757 mmHg 92%

    25 Februar, Sonntag

    Zeit Temperatur Niederschläge Wind Luftdruck Luftfeuchtigkeit
    00:00 +26°C° 0,9 mm 3 m/S 756 mmHg 92%
    01:00 +26°C° 0,9 mm 3 m/S 756 mmHg 92%
    02:00 +26°C° 0,4 mm 3 m/S 755 mmHg 92%
    03:00 +25°C° 0,4 mm 3 m/S 755 mmHg 93%
    04:00 +25°C° 0,4 mm 2 m/S 755 mmHg 93%
    05:00 +26°C° 0 mm 3 m/S 755 mmHg 91%
    06:00 +26°C° 0 mm 3 m/S 756 mmHg 90%
    07:00 +26°C° 0 mm 3 m/S 756 mmHg 88%
    08:00 +28°C° 0 mm 3 m/S 756 mmHg 77%
    09:00 +31°C° 0 mm 3 m/S 755 mmHg 66%
    10:00 +34°C° 0 mm 3 m/S 755 mmHg 54%
    11:00 +34°C° 0,4 mm 3 m/S 754 mmHg 56%
    12:00 +34°C° 0,4 mm 4 m/S 754 mmHg 59%
    13:00 +34°C° 0,4 mm 4 m/S 753 mmHg 61%
    14:00 +34°C° 0,9 mm 4 m/S 753 mmHg 64%
    15:00 +33°C° 0,9 mm 4 m/S 752 mmHg 66%
    16:00 +33°C° 0,9 mm 4 m/S 752 mmHg 69%
    17:00 +32°C° 0,9 mm 4 m/S 752 mmHg 74%
    18:00 +29°C° 0,9 mm 4 m/S 753 mmHg 79%
    19:00 +28°C° 0,9 mm 3 m/S 753 mmHg 84%
    20:00 +28°C° 0,6 mm 3 m/S 753 mmHg 85%
    21:00 +27°C° 0,6 mm 3 m/S 754 mmHg 86%
    22:00 +27°C° 0,6 mm 3 m/S 754 mmHg 86%
    23:00 +27°C° 0,9 mm 3 m/S 754 mmHg 87%

    26 Februar, Montag

    Zeit Temperatur Niederschläge Wind Luftdruck Luftfeuchtigkeit
    00:00 +26°C° 0,9 mm 3 m/S 754 mmHg 88%
    01:00 +26°C° 0,9 mm 3 m/S 754 mmHg 88%
    02:00 +26°C° 0,3 mm 3 m/S 754 mmHg 89%
    03:00 +26°C° 0,3 mm 4 m/S 754 mmHg 89%
    04:00 +26°C° 0,3 mm 4 m/S 754 mmHg 89%
    05:00 +24°C° 0,3 mm 6 m/S 755 mmHg 86%
    06:00 +24°C° 0,3 mm 7 m/S 756 mmHg 83%
    07:00 +23°C° 0,3 mm 9 m/S 757 mmHg 80%
    08:00 +24°C° 0 mm 9 m/S 757 mmHg 75%
    09:00 +26°C° 0 mm 8 m/S 757 mmHg 69%
    10:00 +27°C° 0 mm 8 m/S 758 mmHg 64%
    11:00 +28°C° 0 mm 8 m/S 757 mmHg 59%
    12:00 +29°C° 0 mm 8 m/S 757 mmHg 55%
    13:00 +31°C° 0 mm 8 m/S 757 mmHg 50%
    14:00 +30°C° 0 mm 7 m/S 757 mmHg 51%
    15:00 +29°C° 0 mm 7 m/S 757 mmHg 53%
    16:00 +29°C° 0 mm 7 m/S 757 mmHg 54%
    17:00 +28°C° 0 mm 7 m/S 758 mmHg 59%
    18:00 +26°C° 0 mm 6 m/S 758 mmHg 64%
    19:00 +24°C° 0 mm 6 m/S 759 mmHg 69%
    20:00 +23°C° 0 mm 5 m/S 759 mmHg 72%
    21:00 +23°C° 0 mm 5 m/S 760 mmHg 75%
    22:00 +22°C° 0 mm 5 m/S 760 mmHg 77%
    23:00 +22°C° 0 mm 5 m/S 760 mmHg 78%
    Mehr zeigen